LVBLE SAZM-SAVY

Flight info

Callsign LVBLE
Flight time N/A
Altitude 24000
Route ROGAS1G ROGAS W33 SILUS DCT KIGIR W18 MIGUS DCT NUEXE
Aircraft TBM8/L-SDFGRWY/S

Departure

Time 2026-05-07 20:57
Airport Ástor Piazzola International Airport (SAZM)

Arrival

Time N/A
Airport El Tehuelche Airport (SAVY)
Time Latitude Longitude Altitude Speed Heading
2026-05-07 20:36 -37.93418 -57.57972 48 ft 0 kts 301°
2026-05-07 20:52 -37.93388 -57.57982 48 ft 13 kts 68°
2026-05-07 20:53 -37.93430 -57.57865 48 ft 15 kts 117°
2026-05-07 20:53 -37.93474 -57.57750 48 ft 13 kts 112°
2026-05-07 20:53 -37.93511 -57.57663 48 ft 9 kts 136°
2026-05-07 20:53 -37.93559 -57.57578 48 ft 14 kts 120°
2026-05-07 20:54 -37.93616 -57.57454 48 ft 21 kts 117°
2026-05-07 20:54 -37.93702 -57.57243 48 ft 22 kts 121°
2026-05-07 20:54 -37.93755 -57.57121 48 ft 10 kts 120°
2026-05-07 20:54 -37.93784 -57.57061 48 ft 8 kts 121°
2026-05-07 20:55 -37.93858 -57.56896 48 ft 34 kts 120°
2026-05-07 20:55 -37.93949 -57.56686 48 ft 19 kts 122°
2026-05-07 20:55 -37.93998 -57.56575 48 ft 13 kts 118°
2026-05-07 20:55 -37.94026 -57.56444 48 ft 12 kts 69°
2026-05-07 20:56 -37.93991 -57.56371 48 ft 13 kts 56°
2026-05-07 20:56 -37.93906 -57.56397 48 ft 22 kts 307°
2026-05-07 20:56 -37.93732 -57.56713 50 ft 72 kts 303°
2026-05-07 20:56 -37.93364 -57.57447 60 ft 119 kts 300°
2026-05-07 20:57 -37.92864 -57.58409 201 ft 145 kts 301°
2026-05-07 20:57 -37.92275 -57.59505 599 ft 154 kts 302°
2026-05-07 20:57 -37.91689 -57.60659 1095 ft 158 kts 294°
2026-05-07 20:57 -37.91096 -57.61929 1386 ft 178 kts 298°
2026-05-07 20:58 -37.90449 -57.63348 1567 ft 192 kts 298°
2026-05-07 20:58 -37.89733 -57.64835 1755 ft 203 kts 300°
2026-05-07 20:58 -37.88970 -57.66369 1935 ft 206 kts 300°
2026-05-07 20:58 -37.88213 -57.67919 2107 ft 207 kts 298°
2026-05-07 20:59 -37.87465 -57.69489 2270 ft 209 kts 299°
2026-05-07 20:59 -37.86702 -57.71064 2507 ft 208 kts 299°
2026-05-07 20:59 -37.85947 -57.72627 2745 ft 208 kts 299°
2026-05-07 20:59 -37.85225 -57.74178 2961 ft 206 kts 293°
2026-05-07 21:00 -37.84909 -57.75919 3150 ft 203 kts 272°
2026-05-07 21:00 -37.85080 -57.77683 3347 ft 203 kts 253°
2026-05-07 21:00 -37.85715 -57.79271 3556 ft 204 kts 238°
2026-05-07 21:00 -37.86490 -57.80777 3811 ft 204 kts 239°
2026-05-07 21:01 -37.87243 -57.82308 4047 ft 205 kts 239°
2026-05-07 21:01 -37.88005 -57.83846 4293 ft 206 kts 239°
2026-05-07 21:01 -37.88766 -57.85386 4527 ft 207 kts 239°
2026-05-07 21:01 -37.89535 -57.86941 4772 ft 208 kts 240°
2026-05-07 21:02 -37.90296 -57.88483 5006 ft 209 kts 240°
2026-05-07 21:02 -37.91070 -57.90048 5243 ft 210 kts 240°
2026-05-07 21:02 -37.91850 -57.91626 5487 ft 212 kts 240°
2026-05-07 21:02 -37.92635 -57.93217 5724 ft 214 kts 241°
2026-05-07 21:03 -37.93425 -57.94822 5974 ft 215 kts 241°
2026-05-07 21:03 -37.94237 -57.96426 6197 ft 217 kts 236°
2026-05-07 21:03 -37.95382 -57.97690 6377 ft 223 kts 214°
2026-05-07 21:03 -37.96838 -57.98429 6521 ft 229 kts 200°
2026-05-07 21:04 -37.98396 -57.99023 6532 ft 237 kts 201°
2026-05-07 21:04 -37.99990 -57.99678 6530 ft 242 kts 202°
2026-05-07 21:04 -38.01592 -58.00327 6530 ft 245 kts 201°
2026-05-07 21:04 -38.03231 -58.00969 6530 ft 247 kts 201°
2026-05-07 21:05 -38.04877 -58.01617 6534 ft 248 kts 201°
2026-05-07 21:05 -38.06530 -58.02275 6528 ft 248 kts 201°
2026-05-07 21:05 -38.08162 -58.02917 6697 ft 242 kts 201°
2026-05-07 21:05 -38.09760 -58.03531 6929 ft 237 kts 201°
2026-05-07 21:06 -38.11318 -58.04141 7162 ft 233 kts 202°
2026-05-07 21:06 -38.12864 -58.04760 7401 ft 232 kts 202°
2026-05-07 21:06 -38.14413 -58.05312 7645 ft 231 kts 195°
2026-05-07 21:06 -38.15970 -58.05813 7893 ft 230 kts 199°
2026-05-07 21:07 -38.17464 -58.06457 8144 ft 229 kts 202°
2026-05-07 21:07 -38.18974 -58.07111 8398 ft 230 kts 200°
2026-05-07 21:07 -38.20512 -58.07726 8543 ft 236 kts 199°
2026-05-07 21:07 -38.22074 -58.08440 8537 ft 242 kts 210°
2026-05-07 21:08 -38.23408 -58.09765 8534 ft 244 kts 229°
2026-05-07 21:08 -38.24441 -58.11499 8543 ft 247 kts 236°
2026-05-07 21:08 -38.25459 -58.13275 8550 ft 249 kts 235°
2026-05-07 21:08 -38.26496 -58.15046 8552 ft 251 kts 235°
2026-05-07 21:09 -38.27525 -58.16821 8554 ft 252 kts 235°
2026-05-07 21:09 -38.28560 -58.18624 8556 ft 252 kts 236°
2026-05-07 21:09 -38.29587 -58.20402 8762 ft 245 kts 235°
2026-05-07 21:09 -38.30584 -58.22124 9021 ft 238 kts 235°
2026-05-07 21:10 -38.31547 -58.23798 9281 ft 232 kts 235°
2026-05-07 21:10 -38.32505 -58.25445 9529 ft 231 kts 235°
2026-05-07 21:10 -38.33454 -58.27088 9766 ft 230 kts 236°
2026-05-07 21:10 -38.34397 -58.28730 10004 ft 229 kts 236°
2026-05-07 21:11 -38.35339 -58.30368 10248 ft 229 kts 236°
2026-05-07 21:11 -38.36283 -58.32009 10495 ft 229 kts 236°
2026-05-07 21:11 -38.38168 -58.35286 10981 ft 229 kts 236°
2026-05-07 21:12 -38.39112 -58.36929 11232 ft 230 kts 236°
2026-05-07 21:12 -38.40058 -58.38575 11487 ft 230 kts 236°
2026-05-07 21:12 -38.41002 -58.40221 11740 ft 231 kts 236°
2026-05-07 21:12 -38.41950 -58.41872 11997 ft 231 kts 237°
2026-05-07 21:13 -38.42897 -58.43525 12256 ft 232 kts 237°
2026-05-07 21:13 -38.43839 -58.45168 12516 ft 232 kts 237°
2026-05-07 21:13 -38.44792 -58.46832 12775 ft 232 kts 237°
2026-05-07 21:13 -38.45748 -58.48503 13041 ft 233 kts 237°
2026-05-07 21:14 -38.46706 -58.50176 13308 ft 233 kts 237°
2026-05-07 21:14 -38.47667 -58.51855 13548 ft 234 kts 237°
2026-05-07 21:14 -38.48623 -58.53529 13789 ft 234 kts 237°
2026-05-07 21:14 -38.49584 -58.55210 14028 ft 234 kts 237°
2026-05-07 21:15 -38.50546 -58.56895 14270 ft 235 kts 237°
2026-05-07 21:15 -38.51495 -58.58558 14509 ft 235 kts 237°
2026-05-07 21:15 -38.52459 -58.60247 14755 ft 235 kts 237°
2026-05-07 21:15 -38.53421 -58.61935 15002 ft 236 kts 237°
2026-05-07 21:16 -38.54388 -58.63632 15249 ft 236 kts 237°
2026-05-07 21:16 -38.55355 -58.65328 15504 ft 236 kts 237°
2026-05-07 21:16 -38.56325 -58.67033 15753 ft 236 kts 237°
2026-05-07 21:16 -38.57293 -58.68733 16009 ft 237 kts 237°
2026-05-07 21:17 -38.58262 -58.70438 16268 ft 237 kts 237°
2026-05-07 21:17 -38.59232 -58.72144 16528 ft 237 kts 237°
2026-05-07 21:17 -38.60191 -58.73832 16785 ft 237 kts 237°
2026-05-07 21:17 -38.61162 -58.75541 17050 ft 238 kts 237°
2026-05-07 21:18 -38.62135 -58.77257 17316 ft 238 kts 237°
2026-05-07 21:18 -38.63107 -58.78971 17583 ft 238 kts 237°
2026-05-07 21:18 -38.64085 -58.80696 17852 ft 239 kts 237°
2026-05-07 21:18 -38.65060 -58.82416 18089 ft 239 kts 238°
2026-05-07 21:19 -38.66034 -58.84137 18326 ft 239 kts 238°
2026-05-07 21:19 -38.67007 -58.85855 18559 ft 239 kts 239°
2026-05-07 21:19 -38.67982 -58.87577 18798 ft 239 kts 239°
2026-05-07 21:19 -38.68954 -58.89297 19038 ft 239 kts 240°
2026-05-07 21:20 -38.69929 -58.91023 19284 ft 238 kts 240°
2026-05-07 21:20 -38.70891 -58.92723 19522 ft 238 kts 241°
2026-05-07 21:20 -38.71860 -58.94441 19774 ft 238 kts 242°
2026-05-07 21:20 -38.72828 -58.96156 20027 ft 237 kts 242°
2026-05-07 21:21 -38.73794 -58.97869 20279 ft 237 kts 243°
2026-05-07 21:21 -38.74759 -58.99581 20521 ft 236 kts 243°
2026-05-07 21:21 -38.75720 -59.01287 20786 ft 236 kts 244°
2026-05-07 21:21 -38.76682 -59.02994 21045 ft 235 kts 244°
2026-05-07 21:22 -38.77638 -59.04693 21305 ft 235 kts 245°
2026-05-07 21:22 -38.78590 -59.06386 21565 ft 234 kts 245°
2026-05-07 21:22 -38.79541 -59.08076 21838 ft 233 kts 245°
2026-05-07 21:22 -38.80488 -59.09759 22098 ft 232 kts 246°
2026-05-07 21:23 -38.81435 -59.11437 22368 ft 231 kts 246°
2026-05-07 21:23 -38.82369 -59.13107 22634 ft 231 kts 246°
2026-05-07 21:23 -38.83295 -59.14762 22912 ft 231 kts 247°
2026-05-07 21:23 -38.84235 -59.16436 23181 ft 230 kts 247°
2026-05-07 21:24 -38.85166 -59.18098 23400 ft 229 kts 248°
2026-05-07 21:24 -38.86097 -59.19767 23552 ft 233 kts 247°
2026-05-07 21:24 -38.87062 -59.21510 23551 ft 242 kts 246°
2026-05-07 21:24 -38.88060 -59.23294 23564 ft 250 kts 246°
2026-05-07 21:25 -38.89088 -59.25126 23567 ft 256 kts 245°
2026-05-07 21:25 -38.90140 -59.27006 23567 ft 262 kts 245°
2026-05-07 21:25 -38.91211 -59.28926 23568 ft 267 kts 245°
2026-05-07 21:25 -38.92302 -59.30879 23563 ft 271 kts 244°
2026-05-07 21:26 -38.93394 -59.32834 23568 ft 274 kts 244°
2026-05-07 21:26 -38.94510 -59.34836 23560 ft 277 kts 244°
2026-05-07 21:26 -38.95641 -59.36865 23570 ft 280 kts 243°
2026-05-07 21:26 -38.96776 -59.38904 23570 ft 282 kts 243°
2026-05-07 21:27 -38.97922 -59.40964 23569 ft 284 kts 243°
2026-05-07 21:27 -38.99076 -59.43040 23567 ft 286 kts 242°
2026-05-07 21:27 -39.00236 -59.45126 23570 ft 287 kts 242°
2026-05-07 21:27 -39.01401 -59.47222 23564 ft 288 kts 242°
2026-05-07 21:28 -39.02567 -59.49323 23571 ft 289 kts 242°
2026-05-07 21:28 -39.03738 -59.51434 23572 ft 290 kts 241°
2026-05-07 21:28 -39.04910 -59.53548 23568 ft 291 kts 241°
2026-05-07 21:28 -39.06084 -59.55668 23568 ft 291 kts 241°
2026-05-07 21:29 -39.07260 -59.57793 23571 ft 292 kts 240°
2026-05-07 21:29 -39.08423 -59.59895 23570 ft 292 kts 240°
2026-05-07 21:29 -39.09605 -59.62034 23570 ft 292 kts 240°
2026-05-07 21:29 -39.10785 -59.64170 23570 ft 293 kts 240°
2026-05-07 21:30 -39.11966 -59.66309 23574 ft 293 kts 240°
2026-05-07 21:30 -39.13148 -59.68451 23573 ft 293 kts 239°
2026-05-07 21:30 -39.14330 -59.70593 23573 ft 293 kts 239°
2026-05-07 21:30 -39.15509 -59.72734 23572 ft 293 kts 239°
2026-05-07 21:31 -39.16691 -59.74880 23569 ft 293 kts 239°
2026-05-07 21:31 -39.17871 -59.77024 23572 ft 293 kts 239°
2026-05-07 21:31 -39.19050 -59.79169 23570 ft 294 kts 239°
2026-05-07 21:31 -39.20235 -59.81324 23571 ft 293 kts 239°
2026-05-07 21:32 -39.21414 -59.83471 23573 ft 293 kts 239°
2026-05-07 21:32 -39.22593 -59.85622 23574 ft 294 kts 239°
2026-05-07 21:32 -39.23375 -59.87047 23574 ft 294 kts 239°
2026-05-07 21:32 -39.24940 -59.89900 23575 ft 294 kts 239°
2026-05-07 21:33 -39.26118 -59.92051 23574 ft 294 kts 239°
2026-05-07 21:33 -39.27299 -59.94207 23577 ft 294 kts 239°
2026-05-07 21:33 -39.28478 -59.96367 23577 ft 294 kts 239°
2026-05-07 21:33 -39.29660 -59.98531 23581 ft 294 kts 239°
2026-05-07 21:34 -39.30441 -59.99958 23577 ft 294 kts 239°
2026-05-07 21:34 -39.31635 -60.02145 23582 ft 294 kts 239°
2026-05-07 21:34 -39.32805 -60.04285 23580 ft 294 kts 239°
2026-05-07 21:34 -39.33980 -60.06450 23581 ft 295 kts 239°
2026-05-07 21:35 -39.35158 -60.08616 23579 ft 295 kts 239°
2026-05-07 21:35 -39.36342 -60.10784 23586 ft 295 kts 239°
2026-05-07 21:35 -39.37525 -60.12955 23585 ft 295 kts 239°
2026-05-07 21:35 -39.38714 -60.15130 23585 ft 296 kts 239°
2026-05-07 21:36 -39.39895 -60.17315 23585 ft 296 kts 239°
2026-05-07 21:36 -39.41072 -60.19497 23587 ft 296 kts 239°
2026-05-07 21:36 -39.42268 -60.21683 23587 ft 296 kts 238°
2026-05-07 21:36 -39.43438 -60.23839 23589 ft 296 kts 239°
2026-05-07 21:37 -39.44620 -60.26033 23593 ft 297 kts 239°
2026-05-07 21:37 -39.45808 -60.28222 23591 ft 297 kts 238°
2026-05-07 21:37 -39.46994 -60.30414 23594 ft 297 kts 238°
2026-05-07 21:37 -39.48185 -60.32606 23592 ft 297 kts 238°
2026-05-07 21:38 -39.49373 -60.34806 23597 ft 298 kts 238°
2026-05-07 21:38 -39.50555 -60.37005 23598 ft 298 kts 238°
2026-05-07 21:38 -39.51745 -60.39208 23600 ft 298 kts 238°
2026-05-07 21:38 -39.52920 -60.41377 23597 ft 298 kts 238°
2026-05-07 21:39 -39.54108 -60.43583 23601 ft 298 kts 238°
2026-05-07 21:39 -39.55292 -60.45790 23602 ft 299 kts 238°
2026-05-07 21:39 -39.56483 -60.48001 23604 ft 299 kts 239°
2026-05-07 21:39 -39.57671 -60.50208 23603 ft 299 kts 238°
2026-05-07 21:40 -39.58865 -60.52425 23604 ft 299 kts 238°
2026-05-07 21:40 -39.60055 -60.54642 23604 ft 299 kts 239°
2026-05-07 21:40 -39.61244 -60.56863 23608 ft 300 kts 238°
2026-05-07 21:40 -39.62436 -60.59086 23610 ft 300 kts 239°
2026-05-07 21:41 -39.63627 -60.61304 23612 ft 300 kts 238°
2026-05-07 21:41 -39.64820 -60.63531 23615 ft 300 kts 238°
2026-05-07 21:41 -39.66012 -60.65759 23615 ft 300 kts 238°
2026-05-07 21:41 -39.67188 -60.67960 23619 ft 301 kts 238°
2026-05-07 21:42 -39.68381 -60.70194 23618 ft 301 kts 238°
2026-05-07 21:42 -39.69573 -60.72423 23622 ft 301 kts 238°
2026-05-07 21:42 -39.70772 -60.74660 23622 ft 301 kts 238°
2026-05-07 21:42 -39.71962 -60.76894 23623 ft 301 kts 238°
2026-05-07 21:43 -39.73151 -60.79131 23623 ft 301 kts 238°
2026-05-07 21:43 -39.74342 -60.81366 23625 ft 301 kts 238°
2026-05-07 21:43 -39.75530 -60.83602 23631 ft 301 kts 238°
2026-05-07 21:43 -39.76719 -60.85836 23630 ft 301 kts 238°
2026-05-07 21:44 -39.77909 -60.88076 23628 ft 301 kts 238°
2026-05-07 21:44 -39.79084 -60.90282 23629 ft 301 kts 237°
2026-05-07 21:44 -39.80272 -60.92518 23631 ft 301 kts 239°
2026-05-07 21:44 -39.81461 -60.94764 23634 ft 301 kts 239°
2026-05-07 21:45 -39.82646 -60.97006 23633 ft 301 kts 239°
2026-05-07 21:45 -39.83833 -60.99251 23636 ft 301 kts 238°
2026-05-07 21:45 -39.85024 -61.01490 23638 ft 301 kts 239°
2026-05-07 21:45 -39.86213 -61.03737 23642 ft 300 kts 238°
2026-05-07 21:46 -39.87383 -61.05954 23640 ft 300 kts 238°
2026-05-07 21:46 -39.88582 -61.08228 23643 ft 300 kts 238°
2026-05-07 21:46 -39.89749 -61.10441 23642 ft 300 kts 239°
2026-05-07 21:46 -39.90932 -61.12680 23644 ft 300 kts 238°
2026-05-07 21:47 -39.92117 -61.14932 23643 ft 300 kts 238°
2026-05-07 21:47 -39.93291 -61.17169 23652 ft 300 kts 238°
2026-05-07 21:47 -39.94477 -61.19412 23648 ft 300 kts 238°
2026-05-07 21:47 -39.95654 -61.21647 23648 ft 299 kts 239°
2026-05-07 21:48 -39.96832 -61.23889 23652 ft 299 kts 239°
2026-05-07 21:48 -39.98004 -61.26128 23659 ft 299 kts 238°
2026-05-07 21:48 -39.99169 -61.28339 23658 ft 299 kts 238°
2026-05-07 21:48 -40.00342 -61.30578 23655 ft 299 kts 238°
2026-05-07 21:49 -40.01509 -61.32816 23656 ft 298 kts 238°
2026-05-07 21:49 -40.02684 -61.35050 23657 ft 298 kts 238°
2026-05-07 21:49 -40.03850 -61.37280 23662 ft 297 kts 238°
2026-05-07 21:49 -40.05014 -61.39511 23663 ft 297 kts 238°
2026-05-07 21:50 -40.06176 -61.41734 23664 ft 296 kts 238°
2026-05-07 21:50 -40.07335 -61.43955 23663 ft 296 kts 238°
2026-05-07 21:50 -40.08489 -61.46166 23666 ft 295 kts 238°
2026-05-07 21:50 -40.09644 -61.48376 23667 ft 294 kts 238°
2026-05-07 21:51 -40.10793 -61.50586 23666 ft 294 kts 238°
2026-05-07 21:51 -40.11941 -61.52794 23670 ft 293 kts 238°
2026-05-07 21:51 -40.13086 -61.54994 23671 ft 293 kts 238°
2026-05-07 21:51 -40.14229 -61.57195 23671 ft 292 kts 238°
2026-05-07 21:52 -40.15356 -61.59361 23673 ft 291 kts 238°
2026-05-07 21:52 -40.16508 -61.61579 23672 ft 291 kts 238°
2026-05-07 21:52 -40.17625 -61.63739 23680 ft 290 kts 238°
2026-05-07 21:52 -40.18760 -61.65931 23679 ft 290 kts 238°
2026-05-07 21:53 -40.19898 -61.68123 23674 ft 290 kts 238°
2026-05-07 21:53 -40.21026 -61.70301 23677 ft 289 kts 237°
2026-05-07 21:53 -40.22151 -61.72478 23681 ft 289 kts 238°
2026-05-07 21:53 -40.23277 -61.74658 23689 ft 288 kts 238°
2026-05-07 21:54 -40.24399 -61.76835 23682 ft 288 kts 237°
2026-05-07 21:54 -40.25508 -61.78982 23690 ft 288 kts 238°
2026-05-07 21:54 -40.26628 -61.81152 23686 ft 287 kts 237°
2026-05-07 21:54 -40.27747 -61.83321 23684 ft 287 kts 237°
2026-05-07 21:55 -40.28861 -61.85489 23692 ft 287 kts 237°
2026-05-07 21:55 -40.29976 -61.87658 23689 ft 286 kts 237°
2026-05-07 21:55 -40.31088 -61.89816 23689 ft 286 kts 237°
2026-05-07 21:55 -40.32202 -61.91978 23691 ft 285 kts 237°
2026-05-07 21:56 -40.33310 -61.94137 23694 ft 285 kts 237°
2026-05-07 21:56 -40.34415 -61.96294 23692 ft 285 kts 237°
2026-05-07 21:56 -40.35524 -61.98454 23690 ft 285 kts 237°
2026-05-07 21:56 -40.36615 -62.00580 23691 ft 284 kts 237°
2026-05-07 21:57 -40.37717 -62.02733 23695 ft 284 kts 237°
2026-05-07 21:57 -40.38815 -62.04880 23697 ft 283 kts 237°
2026-05-07 21:57 -40.39913 -62.07028 23693 ft 283 kts 237°
2026-05-07 21:57 -40.41010 -62.09173 23696 ft 283 kts 237°
2026-05-07 21:58 -40.42107 -62.11321 23698 ft 282 kts 237°
2026-05-07 21:58 -40.43202 -62.13464 23698 ft 282 kts 237°
2026-05-07 21:58 -40.44295 -62.15608 23701 ft 282 kts 237°
2026-05-07 21:58 -40.45369 -62.17716 23699 ft 281 kts 237°
2026-05-07 21:59 -40.46455 -62.19849 23707 ft 281 kts 236°
2026-05-07 21:59 -40.47545 -62.21989 23706 ft 281 kts 236°
2026-05-07 21:59 -40.48628 -62.24116 23703 ft 280 kts 236°
2026-05-07 21:59 -40.49709 -62.26243 23707 ft 280 kts 236°
2026-05-07 22:00 -40.50791 -62.28375 23709 ft 280 kts 236°
2026-05-07 22:00 -40.51872 -62.30503 23711 ft 279 kts 236°
2026-05-07 22:00 -40.52951 -62.32628 23710 ft 279 kts 236°
2026-05-07 22:00 -40.54024 -62.34747 23710 ft 279 kts 236°
2026-05-07 22:01 -40.55100 -62.36870 23707 ft 278 kts 236°
2026-05-07 22:01 -40.56172 -62.38988 23712 ft 278 kts 236°
2026-05-07 22:01 -40.57230 -62.41078 23715 ft 277 kts 236°
2026-05-07 22:01 -40.58297 -62.43190 23716 ft 277 kts 236°
2026-05-07 22:02 -40.59403 -62.45267 23712 ft 277 kts 229°
2026-05-07 22:02 -40.60743 -62.47058 23718 ft 275 kts 224°
2026-05-07 22:02 -40.62095 -62.48834 23717 ft 274 kts 225°
2026-05-07 22:02 -40.63429 -62.50628 23718 ft 274 kts 225°
2026-05-07 22:03 -40.64765 -62.52433 23718 ft 274 kts 225°
2026-05-07 22:03 -40.66102 -62.54224 23719 ft 274 kts 225°
2026-05-07 22:03 -40.67441 -62.56014 23719 ft 274 kts 225°
2026-05-07 22:03 -40.68776 -62.57802 23717 ft 274 kts 225°
2026-05-07 22:04 -40.70111 -62.59596 23713 ft 273 kts 225°
2026-05-07 22:04 -40.71426 -62.61361 23714 ft 273 kts 225°
2026-05-07 22:04 -40.72758 -62.63148 23712 ft 273 kts 225°
2026-05-07 22:04 -40.74091 -62.64939 23714 ft 273 kts 225°
2026-05-07 22:05 -40.75420 -62.66728 23708 ft 273 kts 225°
2026-05-07 22:05 -40.76751 -62.68517 23713 ft 273 kts 225°
2026-05-07 22:05 -40.78078 -62.70305 23715 ft 272 kts 225°
2026-05-07 22:05 -40.79405 -62.72091 23712 ft 272 kts 225°
2026-05-07 22:06 -40.80730 -62.73878 23710 ft 272 kts 225°
2026-05-07 22:06 -40.82054 -62.75663 23711 ft 272 kts 225°
2026-05-07 22:06 -40.83377 -62.77449 23712 ft 272 kts 225°
2026-05-07 22:06 -40.84704 -62.79240 23710 ft 272 kts 225°
2026-05-07 22:07 -40.86028 -62.81030 23707 ft 272 kts 225°
2026-05-07 22:07 -40.87353 -62.82820 23716 ft 272 kts 225°
2026-05-07 22:07 -40.88675 -62.84609 23711 ft 272 kts 225°
2026-05-07 22:07 -40.89983 -62.86381 23717 ft 272 kts 225°
2026-05-07 22:08 -40.91307 -62.88172 23709 ft 272 kts 225°
2026-05-07 22:08 -40.92626 -62.89961 23711 ft 272 kts 225°
2026-05-07 22:08 -40.93949 -62.91754 23712 ft 272 kts 225°
2026-05-07 22:08 -40.95268 -62.93544 23738 ft 272 kts 225°
2026-05-07 22:09 -40.96585 -62.95334 23733 ft 272 kts 225°
2026-05-07 22:09 -40.97903 -62.97123 23739 ft 271 kts 226°
2026-05-07 22:09 -40.99224 -62.98918 23739 ft 271 kts 226°
2026-05-07 22:09 -41.00539 -63.00709 23736 ft 271 kts 226°
2026-05-07 22:10 -41.01857 -63.02503 23728 ft 271 kts 226°
2026-05-07 22:10 -41.03157 -63.04272 23735 ft 271 kts 226°
2026-05-07 22:10 -41.04472 -63.06065 23733 ft 271 kts 226°
2026-05-07 22:10 -41.05784 -63.07854 23733 ft 271 kts 226°
2026-05-07 22:11 -41.07096 -63.09645 23725 ft 271 kts 226°
2026-05-07 22:11 -41.08409 -63.11437 23734 ft 270 kts 226°
2026-05-07 22:11 -41.09722 -63.13230 23733 ft 270 kts 226°
2026-05-07 22:11 -41.11030 -63.15020 23735 ft 270 kts 226°
2026-05-07 22:12 -41.12338 -63.16809 23728 ft 270 kts 226°
2026-05-07 22:12 -41.13643 -63.18596 23734 ft 270 kts 226°
2026-05-07 22:12 -41.14950 -63.20383 23738 ft 269 kts 226°
2026-05-07 22:12 -41.16239 -63.22150 23736 ft 269 kts 226°
2026-05-07 22:13 -41.17542 -63.23940 23728 ft 269 kts 227°
2026-05-07 22:13 -41.18846 -63.25726 23731 ft 269 kts 227°
2026-05-07 22:13 -41.20145 -63.27510 23730 ft 269 kts 227°
2026-05-07 22:13 -41.21449 -63.29299 23737 ft 269 kts 227°
2026-05-07 22:14 -41.22750 -63.31088 23728 ft 269 kts 227°
2026-05-07 22:14 -41.24045 -63.32872 23737 ft 268 kts 227°
2026-05-07 22:14 -41.25343 -63.34657 23742 ft 268 kts 227°
2026-05-07 22:14 -41.26639 -63.36443 23739 ft 269 kts 227°
2026-05-07 22:15 -41.27963 -63.38196 23738 ft 270 kts 221°
2026-05-07 22:15 -41.29506 -63.39626 23742 ft 270 kts 216°
2026-05-07 22:15 -41.31044 -63.41049 23747 ft 270 kts 217°
2026-05-07 22:15 -41.32568 -63.42503 23748 ft 270 kts 217°
2026-05-07 22:16 -41.34100 -63.43947 23738 ft 270 kts 217°
2026-05-07 22:16 -41.35640 -63.45375 23744 ft 270 kts 216°
2026-05-07 22:16 -41.37159 -63.46799 23747 ft 270 kts 217°
2026-05-07 22:16 -41.38694 -63.48239 23746 ft 270 kts 217°
2026-05-07 22:17 -41.40237 -63.49688 23740 ft 270 kts 217°
2026-05-07 22:17 -41.41775 -63.51129 23750 ft 270 kts 217°
2026-05-07 22:17 -41.43314 -63.52578 23747 ft 271 kts 217°
2026-05-07 22:17 -41.44854 -63.54023 23749 ft 271 kts 217°
2026-05-07 22:18 -41.46397 -63.55472 23744 ft 271 kts 217°
2026-05-07 22:18 -41.49477 -63.58374 23749 ft 271 kts 217°
2026-05-07 22:18 -41.51020 -63.59827 23753 ft 272 kts 217°
2026-05-07 22:19 -41.52565 -63.61282 23746 ft 272 kts 217°
2026-05-07 22:19 -41.54108 -63.62739 23753 ft 272 kts 217°
2026-05-07 22:19 -41.55637 -63.64180 23753 ft 272 kts 217°
2026-05-07 22:19 -41.57190 -63.65645 23756 ft 272 kts 217°
2026-05-07 22:20 -41.58742 -63.67107 23750 ft 273 kts 217°
2026-05-07 22:20 -41.60290 -63.68573 23758 ft 273 kts 217°
2026-05-07 22:20 -41.61843 -63.70042 23755 ft 273 kts 218°
2026-05-07 22:20 -41.63395 -63.71514 23756 ft 273 kts 217°
2026-05-07 22:21 -41.64948 -63.72985 23752 ft 274 kts 217°
2026-05-07 22:21 -41.66486 -63.74441 23757 ft 274 kts 217°
2026-05-07 22:21 -41.68041 -63.75910 23760 ft 274 kts 217°
2026-05-07 22:21 -41.69599 -63.77391 23760 ft 275 kts 217°
2026-05-07 22:22 -41.71159 -63.78874 23759 ft 275 kts 218°
2026-05-07 22:22 -41.72718 -63.80358 23762 ft 275 kts 218°
2026-05-07 22:22 -41.74289 -63.81849 23763 ft 276 kts 217°
2026-05-07 22:22 -41.75836 -63.83317 23762 ft 276 kts 217°
2026-05-07 22:23 -41.77398 -63.84806 23761 ft 276 kts 218°
2026-05-07 22:23 -41.78964 -63.86298 23765 ft 276 kts 217°
2026-05-07 22:23 -41.80530 -63.87786 23763 ft 276 kts 217°
2026-05-07 22:23 -41.81573 -63.88781 23764 ft 277 kts 217°
2026-05-07 22:24 -41.83674 -63.90787 23755 ft 277 kts 218°
2026-05-07 22:24 -41.84714 -63.91778 23765 ft 277 kts 217°
2026-05-07 22:24 -41.86283 -63.93278 23765 ft 277 kts 218°
2026-05-07 22:24 -41.87858 -63.94781 23767 ft 277 kts 217°
2026-05-07 22:25 -41.89428 -63.96281 23769 ft 277 kts 217°
2026-05-07 22:25 -41.91002 -63.97786 23768 ft 277 kts 218°
2026-05-07 22:25 -41.92575 -63.99296 23767 ft 278 kts 218°
2026-05-07 22:25 -41.94133 -64.00786 23771 ft 278 kts 217°
2026-05-07 22:26 -41.95726 -64.02315 23771 ft 278 kts 218°
2026-05-07 22:26 -41.97286 -64.03810 23772 ft 278 kts 218°
2026-05-07 22:26 -41.98861 -64.05319 23771 ft 279 kts 218°
2026-05-07 22:26 -42.00447 -64.06843 23774 ft 279 kts 218°
2026-05-07 22:27 -42.02027 -64.08359 23776 ft 279 kts 217°
2026-05-07 22:27 -42.03607 -64.09881 23772 ft 279 kts 217°
2026-05-07 22:27 -42.05189 -64.11407 23775 ft 280 kts 218°
2026-05-07 22:27 -42.06774 -64.12934 23776 ft 280 kts 218°
2026-05-07 22:28 -42.08361 -64.14454 23777 ft 280 kts 218°
2026-05-07 22:28 -42.09930 -64.15961 23776 ft 280 kts 218°
2026-05-07 22:28 -42.11536 -64.17514 23780 ft 281 kts 218°
2026-05-07 22:28 -42.13102 -64.19029 23779 ft 281 kts 218°
2026-05-07 22:29 -42.14690 -64.20563 23784 ft 281 kts 218°
2026-05-07 22:29 -42.16278 -64.22099 23776 ft 281 kts 218°
2026-05-07 22:29 -42.17874 -64.23637 23779 ft 282 kts 218°
2026-05-07 22:29 -42.19465 -64.25176 23785 ft 282 kts 218°
2026-05-07 22:30 -42.21062 -64.26723 23782 ft 282 kts 219°
2026-05-07 22:30 -42.22658 -64.28268 23783 ft 283 kts 219°
2026-05-07 22:30 -42.24258 -64.29823 23787 ft 283 kts 218°
2026-05-07 22:30 -42.25858 -64.31378 23789 ft 283 kts 218°
2026-05-07 22:31 -42.27458 -64.32930 23789 ft 283 kts 218°
2026-05-07 22:31 -42.29064 -64.34487 23788 ft 284 kts 218°
2026-05-07 22:31 -42.30669 -64.36041 23790 ft 284 kts 219°
2026-05-07 22:31 -42.32254 -64.37586 23791 ft 284 kts 219°
2026-05-07 22:32 -42.33879 -64.39173 23793 ft 285 kts 218°
2026-05-07 22:32 -42.35464 -64.40718 23790 ft 285 kts 219°
2026-05-07 22:32 -42.37076 -64.42285 23789 ft 285 kts 218°
2026-05-07 22:32 -42.38687 -64.43852 23794 ft 285 kts 219°
2026-05-07 22:33 -42.40301 -64.45424 23797 ft 286 kts 219°
2026-05-07 22:33 -42.41912 -64.47002 23796 ft 286 kts 219°
2026-05-07 22:33 -42.43519 -64.48579 23798 ft 286 kts 219°
2026-05-07 22:33 -42.45135 -64.50155 23801 ft 286 kts 219°
2026-05-07 22:34 -42.46587 -64.51949 23798 ft 281 kts 234°
2026-05-07 22:34 -42.47740 -64.54079 23802 ft 280 kts 238°
2026-05-07 22:34 -42.48905 -64.56196 23804 ft 281 kts 237°
2026-05-07 22:34 -42.50080 -64.58307 23807 ft 281 kts 237°
2026-05-07 22:35 -42.51242 -64.60436 23814 ft 281 kts 237°
2026-05-07 22:35 -42.52401 -64.62565 23811 ft 281 kts 238°
2026-05-07 22:35 -42.53564 -64.64697 23813 ft 281 kts 237°
2026-05-07 22:35 -42.54713 -64.66794 23814 ft 281 kts 237°
2026-05-07 22:36 -42.55880 -64.68927 23819 ft 281 kts 237°
2026-05-07 22:36 -42.57039 -64.71059 23817 ft 281 kts 237°
2026-05-07 22:36 -42.57975 -64.72776 23817 ft 279 kts 238°
2026-05-07 22:36 -42.59018 -64.74732 23807 ft 234 kts 239°
2026-05-07 22:37 -42.59929 -64.76419 23433 ft 219 kts 239°
2026-05-07 22:37 -42.60847 -64.78089 22602 ft 221 kts 238°
2026-05-07 22:37 -42.61765 -64.79768 21792 ft 221 kts 239°
2026-05-07 22:37 -42.62597 -64.81479 21019 ft 213 kts 244°
2026-05-07 22:38 -42.63377 -64.83170 20269 ft 210 kts 243°
2026-05-07 22:38 -42.64335 -64.84647 19515 ft 214 kts 218°
2026-05-07 22:38 -42.65741 -64.85245 18783 ft 219 kts 184°
2026-05-07 22:38 -42.67201 -64.84709 18053 ft 220 kts 149°
2026-05-07 22:39 -42.68216 -64.83207 17234 ft 216 kts 114°
2026-05-07 22:39 -42.68470 -64.81266 16439 ft 207 kts 82°
2026-05-07 22:39 -42.68269 -64.79360 15688 ft 202 kts 77°
2026-05-07 22:39 -42.68133 -64.78303 15264 ft 201 kts 77°